{"data":{"norad_id":59585,"intl_designator":"2024-076X","name":"STARLINK-31702","alt_names":[],"object_type":"PAYLOAD","status":"ACTIVE","operator":null,"country":"US","launch_date":"2024-04-23","launch_site_code":"AFETR","launch_vehicle":null,"mission":null,"orbit_class":"UNKNOWN","rcs_meters":null,"size_class":null,"mass_kg":null,"dimensions":null,"purposes":["comms"],"wikipedia_slug":null,"has_3d_model":false,"image_url":null,"decayed_at":null,"tle_current":{"epoch":"2026-05-24T18:22:45.731712Z","epoch_age_seconds":105980,"freshness":"FRESH","line1":"1 59585U 24076X   26144.76580708  .00002460  00000+0  98887-4 0  9994","line2":"2 59585  43.0020 299.6955 0002376 273.9042  86.1538 15.27580344118137","mean_motion":15.27580344,"eccentricity":0.0002376,"inclination_deg":43.002,"raan_deg":299.6955,"arg_perigee_deg":273.9042,"mean_anomaly_deg":86.1538,"bstar":9.8887e-5,"rev_number":11813,"period_min":94.266727485464,"perigee_km":481.41784840842,"apogee_km":484.67828355177,"semimajor_km":6861.1850659801,"source":"CELESTRAK","updated_at":"2026-05-25T13:38:18.989086Z"}}}